Regional Weather Roundup
Issued by NWS Grand Forks, ND

Home | Current Version | Previous Version | Graphics & Text | Print | Product List | Glossary On
Versions: 1 2 3 4 5 6 7 8 9 10 11 12 13 14 15 16 17 18 19 20 21 22 23 24 25 26 27 28 29 30 31 32 33 34 35 36 37 38 39 40 41 42 43 44 45 46 47 48 49 50
000
ASUS43 KFGF 202310
RWRFGF
PRAIRIE TO PINES  WEATHER ROUNDUP
NATIONAL WEATHER SERVICE EASTERN NORTH DAKOTA/GRAND FORKS ND
600 PM CDT WED AUG 20 2014

 **SATELLITE DATA USED TO AUGMENT SKY COVER AT AUTOMATED STATIONS**
 *****  WEATHER ACROSS EASTERN NORTH DAKOTA  *****

CITY           SKY/WX    TMP DP  RH WIND       PRES   REMARKS
GRAND FORKS    MOSUNNY   83  66  56 S8        29.77R
GRAND FRKS AFB MOSUNNY   82  68  63 SE8       29.79R
GRAND FRKS NWS   N/A     77 N/A N/A S10         N/A
DEVILS LAKE    PTSUNNY   81  64  57 SE10      29.76R
FARGO          PTSUNNY   82  65  56 S14       29.77S
WAHPETON ARPT  CLOUDY    79  64  61 SE6       29.78S
$$

 ***** WEATHER ACROSS CENTRAL AND WESTERN NORTH DAKOTA  *****

CITY           SKY/WX    TMP DP  RH WIND       PRES   REMARKS
BISMARCK       LGT RAIN  76  71  85 NE8       29.71S
MINOT          CLOUDY    75  63  66 S5        29.72F
JAMESTOWN      PTSUNNY   79  67  66 SE8       29.74F
MINOT AFB      CLOUDY    76  64  65 S7        29.73R
GARRISON         N/A     72  69  90 SW3       29.76R
WILLISTON      CLOUDY    70  64  81 CALM      29.74F
DICKINSON      CLOUDY    71  65  81 NE13      29.75F
HETTINGER      LGT RAIN  67  63  87 NE13      29.76R
$$

 *****  OTHER AIRPORT OBSERVATIONS IN OUR AREA  *****

CITY           SKY/WX    TMP DP  RH WIND       PRES   REMARKS
WALHALLA       FAIR      81  68  65 S5        29.78F
GRAFTON AIRPOR FAIR      81  68  65 SE9       29.78R
VALLEY CITY AR FAIR      81  66  61 SE12      29.77S
CANDO          FAIR      77  66  69 S8        29.78R
CAVALIER APRT  FAIR      82  68  61 SE9       29.78F
GWINNER        CLEAR     82  70  65 SE17      29.76F
ROLLA          FAIR      66  66 100 S3        29.80R
 ***** THE ABOVE OBSERVATIONS ARE NON NWS ARE NOT QUALITY
       CONTROLLED AND MAY MIS-REPORT RAIN FOR SNOW...
$$

  *****  WEATHER ACROSS NORTHERN MINNESOTA  *****

CITY           SKY/WX    TMP DP  RH WIND       PRES   REMARKS
FLAG ISLAND    MOSUNNY   75  63  64 SE6       29.85R
WARROAD        PTSUNNY   79  68  69 E9        29.85R
ROSEAU         PTSUNNY   81  64  57 S12       29.84R
HALLOCK        MOSUNNY   82  64  54 SE8       29.79S
THF RVR FALLS  MOSUNNY   77  66  69 SE7       29.82R
BAUDETTE       MOSUNNY   76  61  59 SE7       29.86S
WASKISH        MOSUNNY   75  63  64 CALM      29.87S
CROOKSTON      SUNNY     82  64  54 S10       29.80S
$$
  *****  WEATHER ACROSS CENTRAL AND WEST MINNESOTA  *****

CITY           SKY/WX    TMP DP  RH WIND       PRES   REMARKS
FOSSTON        MOSUNNY   82  64  54 SE7       29.84S
BEMIDJI        MOSUNNY   77  64  63 SE8       29.86S
PARK RAPIDS    PTSUNNY   79  62  56 SE10      29.84F
ELBOW LAKE     FAIR      79  67  66 SE10      29.80F
WADENA         PTSUNNY   77  64  65 E9        29.84S
DETROIT LAKES  PTSUNNY   79  64  61 SE10      29.83F
MOORHEAD       PTSUNNY   82  72  69 S8        29.79S
FERGUS FALLS   MOSUNNY   81  63  54 SE10      29.79S
MORRIS MN      PTSUNNY   81  66  61 SE9       29.79S
STAPLES        PTSUNNY   79  64  61 SE7       29.85S
$$
  *****  WEATHER ELSEWHERE ACROSS MINNESOTA  *****

CITY           SKY/WX    TMP DP  RH WIND       PRES   REMARKS
DULUTH         PTSUNNY   69  58  67 SE6       29.93R
INTRNTL FALLS  SUNNY     75  58  55 SE6       29.88S
ELY            PTSUNNY   72  57  60 CALM      29.91S
CLOQUET        CLOUDY    70  61  73 E5        29.92S
WHEATON        PTSUNNY   79  66  65 SE13      29.78F
BRAINERD       MOSUNNY   73  64  73 SE6       29.87S
HIBBING        CLOUDY    72  61  68 SE3       29.91S
ALEXANDRIA     MOSUNNY   79  66  64 SE10      29.84F
SAINT CLOUD    PTSUNNY   82  65  56 E8        29.84S
MINNEAPOLIS    PTSUNNY   82  66  58 E9        29.84S
$$

  *****  WEATHER ACROSS SOUTH DAKOTA  *****

CITY           SKY/WX    TMP DP  RH WIND       PRES   REMARKS
SIOUX FALLS    LGT RAIN  74  70  87 SE7       29.78R
BROOKINGS      NOT AVBL
WATERTOWN      CLOUDY    75  68  78 SE7       29.77F
HURON          CLOUDY    81  66  60 S9        29.71R
SISSETON         N/A     81  68  64 SE13G21   29.75F
ABERDEEN       CLOUDY    78  67  68 SE14      29.73R
MITCHELL       CLOUDY    79  70  74 S12       29.73R
PIERRE         SUNNY     88  71  57 SE18G25   29.63F HX  94
MOBRIDGE       PTSUNNY   81  70  69 SE17      29.67R
RAPID CITY     PTSUNNY   82  57  42 N13       29.74R
$$

  *****  SOME WEATHER IN NEARBY STATES *****

CITY           SKY/WX    TMP DP  RH WIND       PRES   REMARKS
GLASGOW MT     PTSUNNY   79  56  45 VRB7      29.76S
GREAT FALLS MT CLOUDY    74  47  38 CALM      29.83R
CHEYENNE WY    LGT RAIN  72  51  47 N6        30.00R
SCOTTSBLUFF NE MOSUNNY   92  48  22 NW14      29.81S
OMAHA NE       PTSUNNY   88  74  63 SE21      29.78F HX  96
DES MOINES IA  PTSUNNY   82  73  74 S7        29.85F
DAVENPORT IA   CLOUDY    75  67  76 W9        29.92F
CHICAGO IL     PTSUNNY   84  62  47 W12       29.87S
EAU CLAIRE WI  PTSUNNY   77  64  64 NE7       29.87F
LA CROSSE WI   CLOUDY    83  66  56 MISG      29.86R
$$

  *****  SOME NATIONAL WEATHER *****

CITY           SKY/WX    TMP DP  RH WIND       PRES   REMARKS
LA GUARDIA NY  PTCLDY    77  53  43 S12       29.99S
RALEIGH NC     MOSUNNY   79  70  74 VRB3      29.97R
ATLANTA GA     CLOUDY    75  70  84 SW5       30.04F
NEW ORLEANS LA CLOUDY    84  73  69 S7        30.05S HX  90
OKLAHOMA CITY  MOSUNNY   95  63  34 S18G26    29.86F HX  96
ALBUQUERQUE NM PTSUNNY   85  42  22 SW10      30.03F
SALT LAKE CITY CLOUDY    78  51  38 S22G28    29.91F
LOS ANGELES CA MOSUNNY   75  59  57 W13       29.90F
BOISE ID       PTSUNNY   83  43  24 N3        29.80F
SEATTLE WA     PTSUNNY   70  52  52 SW8       29.99F
$$

*** WEATHER ACROSS MANITOBA...SASKATCHEWAN AND ONTARIO ***
                ***ONTARIO***

CITY           SKY/WX    TMP DP  RH WIND       PRES   REMARKS
GERALDTON      CLOUDY    66  61  82 E7        29.96R
THUNDER BAY    CLOUDY    66  61  82 E8        29.92S
SIOUX LOOKOUT  PTSUNNY   75  59  57 E3        29.90S
TORONTO        CLOUDY    72  63  73 SE12G18   29.89F
BIG TROUT LK   SUNNY     77  54  44 SE7       29.90S
PICKLE LAKE    MOSUNNY   77  50  38 SE12      29.91S
DRYDEN         PTSUNNY   77  57  50 S7        29.89F
KENORA         PTSUNNY   75  57  53 S8        29.88F
$$
                *** MANITOBA***

CITY           SKY/WX    TMP DP  RH WIND       PRES   REMARKS
BRANDON        CLOUDY    73  63  68 S13G20    29.73R THUNDER
DAUPHIN        SUNNY     77  68  73 CALM      29.68R
ISLAND LAKE    MOSUNNY   84  59  42 SE6       29.79S
PILOT MOUND      N/A     68  64  88 E10         N/A
THE PAS        RAIN      68  64  88 N3G20     29.64R
THOMPSON       PTSUNNY   79  61  53 S9G20     29.69F
WINNIPEG       PTSUNNY   79  66  65 SE10      29.78S
LYNN LAKE      RAIN      55  55 100 MISG      29.70S
CHURCHILL      PTSUNNY   50  48  93 N10       29.84R FOG
GILLAM         PTSUNNY   84  59  42 S10       29.75S
$$
                ***SASKATCHEWAN***

CITY           SKY/WX    TMP DP  RH WIND       PRES   REMARKS
ESTEVAN        CLOUDY    66  63  88 NE5       29.74
KINDERSLEY     PTSUNNY   73  50  43 N13G20    29.82R
LLOYDMINSTER   PTSUNNY   64  54  68 NW15      29.86R
PRINCE ALBERT  LGT RAIN  63  61  94 N8        29.75S
REGINA         PTSUNNY   72  63  73 NW10      29.75R
YORKTON        SUNNY     75  64  69 W10       29.70R
N. BATTLEFORD  MOSUNNY   72  57  60 N9        29.80R
LA RONGE       PTSUNNY   66  61  82 N3        29.77R
SASKATOON      PTSUNNY   70  59  68 N13       29.78R
SWIFT CURRENT  PTSUNNY   73  52  46 NW15      29.78R
$$
NOTE: THESE ARE AUTOMATED STATIONS WITH LIMITED QUALITY CONTROL
      "FAIR" INDICATES FEW OR NO CLOUDS BELOW 12,000 FEET WITH NO
      SIGNIFICANT WEATHER AND/OR OBSTRUCTIONS TO VISIBILITY.
      SKY/WX - SKY CONDITION AND SIGNIFICANT WEATHER.
      TMP - AIR TEMPERATURE.    DP   - DEWPOINT TEMPERATURE.
      RH  - RELATIVE HUMIDITY.  PRES - PRESSURE.
      HX  - HEAT INDEX.         WCI  - WIND CHILL INDEX.
$



USA.gov is the U.S. government's official web portal to all federal, state and local government web resources and services.